GALAXY 28 (G-28)

Last updated on Tue Sep 22 2026 00:03:11 GMT+0000 (Coordinated Universal Time)

1 28702U 05022A 26264.34113001 -.00000203 00000+0 00000+0 0 9995 2 28702 3.5400 77.6765 0001784 108.5578 269.6988 1.00270057 52945
UTC large
Height (km)
Speed (km/s)
/
Latitude / Longitude
Inclination (degrees)
Orbital Period (minutes)
Azimuth
Elevation
Range (km)
Doppler Factor

Next 0 passes for location: London (51.5072 / 0.1276)

No passes found over London.
GALAXY 28 (G-28)